Location: Chimay
(50.0486°N, 4.3171°E)
Time: 15:21:17
(UTC+00:00)

SL-27 R/B - Pass Details

Date: 08 August 2020
Orbit: 419 x 471 km, 74.7° (Epoch: 24 September)

Event Time Altitude Azimuth Distance (km) Brightness Sun altitude
Exits shadow 22:52:48 40° 303° (WNW) 636 3.4 -23.0°
Drops below altitude 10° 22:55:52 10° 10° (N) 1,515 6.0 -23.2°
Sets 22:58:00 0° 18° (NNE) 2,384 7.0 -23.2°
